| time (UTC) | temp F | wind direction | speed MPH | gust MPH | rain 1hr in | rain 24hr in | rain mn in | humidity % | barometer mb |
| 20260902022553 | 75 | 255 | 0.0 | 2.0 | 0.00 | 0.00 | 0.00 | 39 | 1022.6 |
| 20260902022102 | 75 | 255 | 0.0 | 2.0 | 0.00 | 0.00 | 0.00 | 39 | 1022.6 |
| 20260902021513 | 75 | 255 | 0.0 | 3.0 | 0.00 | 0.00 | 0.00 | 39 | 1022.5 |
| 20260902021102 | 76 | 256 | 1.0 | 3.0 | 0.00 | 0.00 | 0.00 | 38 | 1022.5 |
| 20260902020502 | 76 | 240 | 0.0 | 2.0 | 0.00 | 0.00 | 0.00 | 38 | 1022.5 |
| 20260902020051 | 77 | 231 | 0.0 | 2.0 | 0.00 | 0.00 | 0.00 | 38 | 1022.5 |
| 20260902015558 | 77 | 216 | 0.0 | 2.0 | 0.00 | 0.00 | 0.00 | 38 | 1022.5 |
| 20260902015002 | 77 | 226 | 0.0 | 2.0 | 0.00 | 0.00 | 0.00 | 37 | 1022.3 |
| 20260902014556 | 78 | 226 | 0.0 | 2.0 | 0.00 | 0.00 | 0.00 | 36 | 1022.4 |
| 20260902014105 | 78 | 212 | 0.0 | 2.0 | 0.00 | 0.00 | 0.00 | 35 | 1022.3 |
| 20260902013602 | 78 | 225 | 0.0 | 2.0 | 0.00 | 0.00 | 0.00 | 35 | 1022.3 |
| 20260902013105 | 79 | 252 | 0.0 | 2.0 | 0.00 | 0.00 | 0.00 | 34 | 1022.3 |
| 20260902012557 | 79 | 252 | 1.0 | 4.0 | 0.00 | 0.00 | 0.00 | 34 | 1022.4 |
| 20260902012001 | 79 | 277 | 1.0 | 4.0 | 0.00 | 0.00 | 0.00 | 33 | 1022.3 |
| 20260902011509 | 79 | 285 | 2.0 | 5.0 | 0.00 | 0.00 | 0.00 | 33 | 1022.3 |
| 20260902011103 | 80 | 296 | 2.0 | 7.0 | 0.00 | 0.00 | 0.00 | 32 | 1022.4 |
| 20260902010507 | 80 | 286 | 3.0 | 7.0 | 0.00 | 0.00 | 0.00 | 32 | 1022.4 |
| 20260902010109 | 80 | 259 | 1.0 | 4.0 | 0.00 | 0.00 | 0.00 | 32 | 1022.4 |
| 20260902005553 | 80 | 258 | 1.0 | 3.0 | 0.00 | 0.00 | 0.00 | 32 | 1022.3 |
| 20260902005101 | 81 | 312 | 1.0 | 4.0 | 0.00 | 0.00 | 0.00 | 32 | 1022.4 |
| 20260902004507 | 81 | 263 | 1.0 | 7.0 | 0.00 | 0.00 | 0.00 | 32 | 1022.4 |
| 20260902004015 | 81 | 217 | 2.0 | 6.0 | 0.00 | 0.00 | 0.00 | 31 | 1022.4 |
| 20260902003607 | 81 | 289 | 1.0 | 6.0 | 0.00 | 0.00 | 0.00 | 31 | 1022.5 |
| 20260902003009 | 82 | 278 | 2.0 | 8.0 | 0.00 | 0.00 | 0.00 | 31 | 1022.5 |
| 20260902002604 | 82 | 195 | 2.0 | 5.0 | 0.00 | 0.00 | 0.00 | 31 | 1022.5 |
| 20260902002055 | 81 | 248 | 2.0 | 6.0 | 0.00 | 0.00 | 0.00 | 31 | 1022.4 |
| 20260902001612 | 81 | 251 | 2.0 | 6.0 | 0.00 | 0.00 | 0.00 | 32 | 1022.5 |
| 20260902001054 | 81 | 306 | 1.0 | 9.0 | 0.00 | 0.00 | 0.00 | 31 | 1022.5 |
| 20260902000605 | 81 | 309 | 6.0 | 9.0 | 0.00 | 0.00 | 0.00 | 31 | 1022.6 |
| 20260902000055 | 82 | 297 | 6.0 | 10.0 | 0.00 | 0.00 | 0.00 | 32 | 1022.6 |
| 20260901235545 | 82 | 268 | 4.0 | 10.0 | 0.00 | 0.00 | 0.00 | 31 | 1022.6 |
| 20260901235053 | 82 | 229 | 5.0 | 9.0 | 0.00 | 0.00 | 0.00 | 31 | 1022.7 |
| 20260901234607 | 82 | 301 | 4.0 | 12.0 | 0.00 | 0.00 | 0.00 | 30 | 1022.7 |
| 20260901234004 | 83 | 309 | 5.0 | 12.0 | 0.00 | 0.00 | 0.00 | 31 | 1022.7 |
| 20260901233602 | 83 | 177 | 1.0 | 8.0 | 0.00 | 0.00 | 0.00 | 31 | 1022.8 |
| 20260901233010 | 83 | 178 | 2.0 | 11.0 | 0.00 | 0.00 | 0.00 | 30 | 1022.8 |
| 20260901232604 | 82 | 254 | 4.0 | 11.0 | 0.00 | 0.00 | 0.00 | 31 | 1022.8 |
| 20260901232052 | 83 | 292 | 4.0 | 11.0 | 0.00 | 0.00 | 0.00 | 31 | 1022.8 |
| 20260901231605 | 83 | 280 | 4.0 | 11.0 | 0.00 | 0.00 | 0.00 | 31 | 1022.9 |
| 20260901231055 | 83 | 298 | 2.0 | 9.0 | 0.00 | 0.00 | 0.00 | 30 | 1022.8 |
| 20260901230542 | 83 | 155 | 3.0 | 14.0 | 0.00 | 0.00 | 0.00 | 29 | 1022.8 |
| 20260901230047 | 83 | 324 | 3.0 | 14.0 | 0.00 | 0.00 | 0.00 | 29 | 1022.9 |
| 20260901225556 | 83 | 266 | 2.0 | 11.0 | 0.00 | 0.00 | 0.00 | 30 | 1022.8 |
| 20260901225103 | 83 | 215 | 4.0 | 11.0 | 0.00 | 0.00 | 0.00 | 30 | 1022.9 |
| 20260901224554 | 83 | 304 | 3.0 | 8.0 | 0.00 | 0.00 | 0.00 | 30 | 1022.9 |
| 20260901224101 | 83 | 290 | 2.0 | 9.0 | 0.00 | 0.00 | 0.00 | 30 | 1022.9 |
| 20260901223555 | 83 | 250 | 3.0 | 9.0 | 0.00 | 0.00 | 0.00 | 29 | 1022.9 |
| 20260901223045 | 83 | 287 | 2.0 | 8.0 | 0.00 | 0.00 | 0.00 | 31 | 1023.0 |
| 20260901222552 | 83 | 267 | 5.0 | 9.0 | 0.00 | 0.00 | 0.00 | 30 | 1023.0 |
| 20260901222046 | 84 | 292 | 3.0 | 8.0 | 0.00 | 0.00 | 0.00 | 31 | 1023.0 |
| 20260901221554 | 84 | 171 | 3.0 | 9.0 | 0.00 | 0.00 | 0.00 | 31 | 1023.0 |
| 20260901221100 | 83 | 234 | 5.0 | 10.0 | 0.00 | 0.00 | 0.00 | 31 | 1023.1 |
| 20260901220504 | 83 | 292 | 3.0 | 8.0 | 0.00 | 0.00 | 0.00 | 32 | 1023.2 |
| 20260901220053 | 82 | 256 | 4.0 | 8.0 | 0.00 | 0.00 | 0.00 | 32 | 1023.1 |
| 20260901215601 | 82 | 280 | 4.0 | 14.0 | 0.00 | 0.00 | 0.00 | 32 | 1023.2 |
| 20260901215053 | 82 | 194 | 4.0 | 14.0 | 0.00 | 0.00 | 0.00 | 32 | 1023.2 |
| 20260901214608 | 82 | 292 | 6.0 | 10.0 | 0.00 | 0.00 | 0.00 | 31 | 1023.2 |
| 20260901214053 | 82 | 222 | 1.0 | 9.0 | 0.00 | 0.00 | 0.00 | 31 | 1023.4 |
| 20260901213601 | 81 | 321 | 2.0 | 9.0 | 0.00 | 0.00 | 0.00 | 32 | 1023.3 |
| 20260901213003 | 81 | 257 | 5.0 | 9.0 | 0.00 | 0.00 | 0.00 | 32 | 1023.4 |
| 20260901212559 | 82 | 271 | 0.0 | 12.0 | 0.00 | 0.00 | 0.00 | 33 | 1023.4 |
| 20260901212001 | 82 | 259 | 6.0 | 13.0 | 0.00 | 0.00 | 0.00 | 34 | 1023.5 |
| 20260901211558 | 82 | 283 | 6.0 | 13.0 | 0.00 | 0.00 | 0.00 | 34 | 1023.6 |
| 20260901211050 | 82 | 281 | 3.0 | 6.0 | 0.00 | 0.00 | 0.00 | 34 | 1023.6 |
| 20260901210555 | 82 | 159 | 5.0 | 10.0 | 0.00 | 0.00 | 0.00 | 33 | 1023.8 |
| 20260901210108 | 82 | 219 | 3.0 | 10.0 | 0.00 | 0.00 | 0.00 | 33 | 1023.8 |
| 20260901205508 | 82 | 258 | 2.0 | 10.0 | 0.00 | 0.00 | 0.00 | 31 | 1023.9 |
| 20260901205103 | 82 | 242 | 3.0 | 8.0 | 0.00 | 0.00 | 0.00 | 31 | 1023.9 |
| 20260901204502 | 81 | 209 | 3.0 | 8.0 | 0.00 | 0.00 | 0.00 | 32 | 1024.0 |
| 20260901204100 | 80 | 313 | 1.0 | 8.0 | 0.00 | 0.00 | 0.00 | 34 | 1024.0 |
| 20260901203553 | 80 | 252 | 3.0 | 8.0 | 0.00 | 0.00 | 0.00 | 35 | 1024.0 |
| 20260901203119 | 80 | 329 | 3.0 | 8.0 | 0.00 | 0.00 | 0.00 | 35 | 1024.2 |
| 20260901202550 | 80 | 267 | 1.0 | 8.0 | 0.00 | 0.00 | 0.00 | 35 | 1024.3 |
| 20260901202044 | 80 | 286 | 2.0 | 8.0 | 0.00 | 0.00 | 0.00 | 36 | 1024.3 |
| 20260901201556 | 80 | 317 | 5.0 | 8.0 | 0.00 | 0.00 | 0.00 | 35 | 1024.4 |
| 20260901201042 | 80 | 194 | 2.0 | 11.0 | 0.00 | 0.00 | 0.00 | 37 | 1024.5 |
| 20260901200550 | 80 | 269 | 4.0 | 11.0 | 0.00 | 0.00 | 0.00 | 37 | 1024.6 |
| 20260901200057 | 80 | 213 | 3.0 | 10.0 | 0.00 | 0.00 | 0.00 | 38 | 1024.5 |
| 20260901195605 | 80 | 277 | 0.0 | 4.0 | 0.00 | 0.00 | 0.00 | 39 | 1024.6 |
| 20260901195058 | 79 | 254 | 2.0 | 5.0 | 0.00 | 0.00 | 0.00 | 38 | 1024.7 |
| 20260901194607 | 79 | 44 | 1.0 | 7.0 | 0.00 | 0.00 | 0.00 | 38 | 1024.8 |
| 20260901194057 | 79 | 307 | 1.0 | 7.0 | 0.00 | 0.00 | 0.00 | 37 | 1024.8 |
| 20260901193549 | 79 | 249 | 2.0 | 8.0 | 0.00 | 0.00 | 0.00 | 38 | 1024.8 |
| 20260901193102 | 79 | 223 | 2.0 | 8.0 | 0.00 | 0.00 | 0.00 | 38 | 1024.8 |
| 20260901192606 | 79 | 225 | 2.0 | 6.0 | 0.00 | 0.00 | 0.00 | 40 | 1024.8 |
| 20260901192008 | 78 | 225 | 2.0 | 8.0 | 0.00 | 0.00 | 0.00 | 42 | 1025.0 |
| 20260901191516 | 77 | 279 | 3.0 | 5.0 | 0.00 | 0.00 | 0.00 | 43 | 1025.0 |
| 20260901191024 | 77 | 288 | 2.0 | 6.0 | 0.00 | 0.00 | 0.00 | 42 | 1025.1 |
| 20260901190532 | 77 | 248 | 3.0 | 7.0 | 0.00 | 0.00 | 0.00 | 42 | 1025.1 |
| 20260901190039 | 77 | 289 | 1.0 | 9.0 | 0.00 | 0.00 | 0.00 | 44 | 1025.0 |
| 20260901185547 | 77 | 288 | 3.0 | 9.0 | 0.00 | 0.04 | 0.00 | 43 | 1025.1 |
| 20260901185054 | 77 | 204 | 2.0 | 8.0 | 0.00 | 0.04 | 0.00 | 46 | 1025.2 |
| 20260901184603 | 77 | 298 | 4.0 | 8.0 | 0.00 | 0.04 | 0.00 | 43 | 1025.2 |
| 20260901184003 | 77 | 333 | 1.0 | 9.0 | 0.00 | 0.04 | 0.00 | 44 | 1025.3 |
| 20260901183559 | 77 | 308 | 1.0 | 7.0 | 0.00 | 0.04 | 0.00 | 45 | 1025.4 |
| 20260901183000 | 76 | 252 | 1.0 | 4.0 | 0.00 | 0.04 | 0.00 | 47 | 1025.5 |
| 20260901182600 | 77 | 347 | 1.0 | 8.0 | 0.00 | 0.04 | 0.00 | 47 | 1025.5 |
| 20260901182003 | 77 | 236 | 3.0 | 8.0 | 0.00 | 0.04 | 0.00 | 48 | 1025.4 |
| 20260901181559 | 76 | 210 | 1.0 | 8.0 | 0.00 | 0.04 | 0.00 | 46 | 1025.4 |
| 20260901181003 | 76 | 282 | 4.0 | 7.0 | 0.00 | 0.04 | 0.00 | 47 | 1025.5 |
| 20260901180513 | 76 | 302 | 1.0 | 5.0 | 0.00 | 0.04 | 0.00 | 45 | 1025.5 |
| 20260901180039 | 76 | 155 | 2.0 | 8.0 | 0.00 | 0.04 | 0.00 | 46 | 1025.4 |
| 20260901175545 | 75 | 247 | 3.0 | 8.0 | 0.00 | 0.05 | 0.00 | 45 | 1025.5 |
| 20260901175053 | 75 | 355 | 2.0 | 8.0 | 0.00 | 0.05 | 0.00 | 46 | 1025.4 |
| 20260901174604 | 75 | 291 | 4.0 | 8.0 | 0.00 | 0.05 | 0.00 | 45 | 1025.5 |
| 20260901174006 | 75 | 254 | 2.0 | 6.0 | 0.00 | 0.05 | 0.00 | 47 | 1025.4 |
| 20260901173559 | 75 | 34 | 1.0 | 4.0 | 0.00 | 0.05 | 0.00 | 46 | 1025.5 |
| 20260901173001 | 76 | 261 | 2.0 | 4.0 | 0.00 | 0.05 | 0.00 | 45 | 1025.6 |
| 20260901172559 | 76 | 190 | 1.0 | 6.0 | 0.00 | 0.05 | 0.00 | 46 | 1025.5 |
| 20260901172052 | 75 | 241 | 2.0 | 6.0 | 0.00 | 0.05 | 0.00 | 49 | 1025.5 |
| 20260901171547 | 75 | 242 | 1.0 | 4.0 | 0.00 | 0.05 | 0.00 | 48 | 1025.5 |
| 20260901171052 | 75 | 107 | 2.0 | 4.0 | 0.00 | 0.05 | 0.00 | 48 | 1025.6 |
| 20260901170602 | 74 | 162 | 2.0 | 5.0 | 0.00 | 0.05 | 0.00 | 50 | 1025.5 |
| 20260901170002 | 74 | 192 | 1.0 | 5.0 | 0.00 | 0.05 | 0.00 | 53 | 1025.5 |
| 20260901165601 | 73 | 123 | 1.0 | 4.0 | 0.00 | 0.05 | 0.00 | 51 | 1025.5 |
| 20260901165002 | 73 | 116 | 1.0 | 7.0 | 0.00 | 0.05 | 0.00 | 49 | 1025.5 |
| 20260901164604 | 72 | 128 | 2.0 | 7.0 | 0.00 | 0.05 | 0.00 | 51 | 1025.5 |
| 20260901164002 | 72 | 107 | 1.0 | 4.0 | 0.00 | 0.05 | 0.00 | 51 | 1025.6 |
| 20260901163559 | 71 | 159 | 1.0 | 6.0 | 0.00 | 0.05 | 0.00 | 53 | 1025.6 |
| 20260901163049 | 71 | 24 | 3.0 | 6.0 | 0.00 | 0.05 | 0.00 | 54 | 1025.6 |
| 20260901162557 | 71 | 12 | 2.0 | 6.0 | 0.00 | 0.05 | 0.00 | 54 | 1025.5 |
| 20260901162052 | 71 | 76 | 2.0 | 7.0 | 0.00 | 0.05 | 0.00 | 55 | 1025.6 |
| 20260901161559 | 70 | 84 | 0.0 | 7.0 | 0.00 | 0.05 | 0.00 | 56 | 1025.4 |
| 20260901161050 | 69 | 88 | 3.0 | 6.0 | 0.00 | 0.05 | 0.00 | 60 | 1025.4 |
| 20260901160540 | 69 | 104 | 1.0 | 5.0 | 0.00 | 0.05 | 0.00 | 59 | 1025.5 |
| 20260901160055 | 68 | 65 | 2.0 | 5.0 | 0.00 | 0.05 | 0.00 | 57 | 1025.5 |
| 20260901155557 | 68 | 54 | 2.0 | 6.0 | 0.00 | 0.05 | 0.00 | 59 | 1025.5 |
| 20260901155105 | 68 | 40 | 3.0 | 6.0 | 0.00 | 0.05 | 0.00 | 59 | 1025.6 |
| 20260901154559 | 67 | 105 | 2.0 | 8.0 | 0.00 | 0.05 | 0.00 | 59 | 1025.7 |
| 20260901154102 | 67 | 50 | 3.0 | 8.0 | 0.00 | 0.05 | 0.00 | 58 | 1025.7 |
| 20260901153554 | 67 | 90 | 1.0 | 7.0 | 0.00 | 0.05 | 0.00 | 61 | 1025.7 |
| 20260901153119 | 67 | 77 | 2.0 | 6.0 | 0.00 | 0.05 | 0.00 | 60 | 1025.7 |
| 20260901152555 | 66 | 126 | 3.0 | 8.0 | 0.00 | 0.05 | 0.00 | 63 | 1025.6 |
| 20260901152050 | 66 | 118 | 4.0 | 8.0 | 0.00 | 0.05 | 0.00 | 63 | 1025.6 |
| 20260901151538 | 65 | 103 | 0.0 | 8.0 | 0.00 | 0.05 | 0.00 | 67 | 1025.6 |
| 20260901151046 | 65 | 130 | 5.0 | 8.0 | 0.00 | 0.05 | 0.00 | 67 | 1025.5 |
| 20260901150538 | 65 | 119 | 5.0 | 8.0 | 0.00 | 0.05 | 0.00 | 67 | 1025.4 |
| 20260901150047 | 65 | 138 | 3.0 | 7.0 | 0.00 | 0.05 | 0.00 | 67 | 1025.5 |
| 20260901145555 | 65 | 88 | 4.0 | 7.0 | 0.00 | 0.05 | 0.00 | 67 | 1025.5 |
| 20260901145103 | 65 | 130 | 4.0 | 6.0 | 0.00 | 0.05 | 0.00 | 64 | 1025.4 |
| 20260901144554 | 65 | 94 | 3.0 | 6.0 | 0.00 | 0.05 | 0.00 | 65 | 1025.4 |
| 20260901144101 | 64 | 93 | 1.0 | 5.0 | 0.00 | 0.05 | 0.00 | 65 | 1025.4 |
| 20260901143554 | 63 | 33 | 2.0 | 4.0 | 0.00 | 0.05 | 0.00 | 67 | 1025.5 |
| 20260901143046 | 63 | 32 | 2.0 | 4.0 | 0.00 | 0.05 | 0.00 | 67 | 1025.5 |
| 20260901142555 | 63 | 46 | 2.0 | 5.0 | 0.00 | 0.05 | 0.00 | 68 | 1025.4 |
| 20260901142047 | 62 | 63 | 2.0 | 4.0 | 0.00 | 0.05 | 0.00 | 69 | 1025.4 |
| 20260901141554 | 62 | 84 | 2.0 | 4.0 | 0.00 | 0.05 | 0.00 | 71 | 1025.6 |
| 20260901141105 | 61 | 105 | 1.0 | 4.0 | 0.00 | 0.05 | 0.00 | 72 | 1025.5 |
| 20260901140505 | 61 | 49 | 1.0 | 5.0 | 0.00 | 0.05 | 0.00 | 73 | 1025.4 |
| 20260901140011 | 60 | 80 | 1.0 | 6.0 | 0.00 | 0.05 | 0.00 | 74 | 1025.5 |
| 20260901135530 | 59 | 111 | 1.0 | 4.0 | 0.00 | 0.05 | 0.00 | 75 | 1025.5 |
| 20260901135043 | 59 | 98 | 0.0 | 4.0 | 0.00 | 0.05 | 0.00 | 77 | 1025.5 |
| 20260901134552 | 58 | 74 | 1.0 | 4.0 | 0.00 | 0.05 | 0.00 | 77 | 1025.5 |
| 20260901134059 | 58 | 57 | 1.0 | 4.0 | 0.00 | 0.05 | 0.00 | 78 | 1025.4 |
| 20260901133513 | 57 | 46 | 1.0 | 5.0 | 0.00 | 0.05 | 0.00 | 80 | 1025.3 |
| 20260901133027 | 57 | 53 | 2.0 | 5.0 | 0.00 | 0.05 | 0.00 | 81 | 1025.3 |
| 20260901132537 | 56 | 38 | 2.0 | 5.0 | 0.00 | 0.05 | 0.00 | 82 | 1025.2 |
| 20260901132012 | 56 | 40 | 1.0 | 4.0 | 0.00 | 0.05 | 0.00 | 84 | 1025.1 |
| 20260901131531 | 55 | 82 | 2.0 | 4.0 | 0.00 | 0.05 | 0.00 | 84 | 1025.1 |
| 20260901131049 | 55 | 77 | 2.0 | 5.0 | 0.00 | 0.05 | 0.00 | 85 | 1025.1 |
| 20260901130559 | 55 | 94 | 2.0 | 5.0 | 0.00 | 0.05 | 0.00 | 85 | 1025.1 |
| 20260901130502 | 55 | 85 | 2.0 | 5.0 | 0.00 | 0.05 | 0.00 | 84 | 1025.1 |
| 20260901130015 | 55 | 77 | 3.0 | 5.0 | 0.00 | 0.05 | 0.00 | 84 | 1025.2 |
| 20260901125529 | 55 | 77 | 3.0 | 5.0 | 0.00 | 0.05 | 0.00 | 84 | 1025.1 |
| 20260901125052 | 55 | 75 | 2.0 | 6.0 | 0.00 | 0.05 | 0.00 | 84 | 1025.0 |
| 20260901124502 | 56 | 111 | 3.0 | 6.0 | 0.00 | 0.05 | 0.00 | 83 | 1024.9 |
| 20260901124014 | 56 | 119 | 2.0 | 4.0 | 0.00 | 0.05 | 0.00 | 83 | 1024.8 |
| 20260901123525 | 56 | 103 | 2.0 | 6.0 | 0.00 | 0.05 | 0.00 | 82 | 1024.9 |
| 20260901123046 | 56 | 102 | 2.0 | 6.0 | 0.00 | 0.05 | 0.00 | 82 | 1024.8 |
| 20260901122503 | 56 | 105 | 3.0 | 6.0 | 0.00 | 0.05 | 0.00 | 81 | 1024.7 |
| 20260901122017 | 56 | 74 | 3.0 | 10.0 | 0.00 | 0.05 | 0.00 | 81 | 1024.7 |
| 20260901121540 | 56 | 63 | 4.0 | 10.0 | 0.00 | 0.05 | 0.00 | 82 | 1024.7 |
| 20260901121052 | 56 | 81 | 3.0 | 6.0 | 0.00 | 0.05 | 0.00 | 82 | 1024.7 |
| 20260901120507 | 56 | 85 | 3.0 | 8.0 | 0.00 | 0.05 | 0.00 | 83 | 1024.7 |
| 20260901120019 | 56 | 52 | 3.0 | 8.0 | 0.00 | 0.05 | 0.00 | 83 | 1024.7 |
| 20260901115537 | 55 | 47 | 3.0 | 5.0 | 0.00 | 0.05 | 0.00 | 85 | 1024.8 |
| 20260901115051 | 55 | 67 | 3.0 | 5.0 | 0.00 | 0.05 | 0.00 | 86 | 1024.7 |
| 20260901114558 | 55 | 38 | 2.0 | 3.0 | 0.00 | 0.05 | 0.00 | 86 | 1024.8 |
| 20260901114009 | 55 | 40 | 2.0 | 5.0 | 0.00 | 0.05 | 0.00 | 86 | 1024.7 |
| 20260901113517 | 56 | 38 | 2.0 | 5.0 | 0.00 | 0.05 | 0.00 | 86 | 1024.7 |
| 20260901113028 | 56 | 69 | 1.0 | 4.0 | 0.00 | 0.05 | 0.00 | 86 | 1024.7 |
| 20260901112544 | 56 | 93 | 1.0 | 3.0 | 0.00 | 0.05 | 0.00 | 87 | 1024.7 |
| 20260901112056 | 56 | 79 | 1.0 | 4.0 | 0.00 | 0.05 | 0.00 | 87 | 1024.6 |
| 20260901111511 | 56 | 98 | 2.0 | 4.0 | 0.00 | 0.05 | 0.00 | 87 | 1024.7 |
| 20260901111026 | 56 | 101 | 1.0 | 3.0 | 0.00 | 0.05 | 0.00 | 86 | 1024.5 |
| 20260901110544 | 56 | 101 | 1.0 | 3.0 | 0.00 | 0.05 | 0.00 | 86 | 1024.6 |
| 20260901110055 | 56 | 101 | 2.0 | 3.0 | 0.00 | 0.05 | 0.00 | 86 | 1024.5 |
| 20260901105508 | 56 | 83 | 2.0 | 4.0 | 0.00 | 0.05 | 0.00 | 86 | 1024.5 |
| 20260901105025 | 56 | 81 | 2.0 | 4.0 | 0.00 | 0.05 | 0.00 | 86 | 1024.6 |
| 20260901104607 | 56 | 101 | 2.0 | 3.0 | 0.00 | 0.05 | 0.00 | 86 | 1024.7 |
| 20260901104501 | 56 | 101 | 2.0 | 3.0 | 0.00 | 0.05 | 0.00 | 86 | 1024.6 |
| 20260901104056 | 56 | 82 | 2.0 | 3.0 | 0.00 | 0.05 | 0.00 | 86 | 1024.6 |
| 20260901103604 | 56 | 82 | 1.0 | 2.0 | 0.00 | 0.05 | 0.00 | 86 | 1024.7 |
| 20260901103007 | 57 | 82 | 1.0 | 3.0 | 0.00 | 0.05 | 0.00 | 86 | 1024.7 |
| 20260901102604 | 57 | 82 | 1.0 | 3.0 | 0.00 | 0.05 | 0.00 | 86 | 1024.7 |
| 20260901102006 | 57 | 82 | 1.0 | 3.0 | 0.00 | 0.05 | 0.00 | 86 | 1024.6 |
| 20260901101612 | 57 | 82 | 2.0 | 3.0 | 0.00 | 0.05 | 0.00 | 86 | 1024.6 |
| 20260901101004 | 57 | 96 | 0.0 | 3.0 | 0.00 | 0.05 | 0.00 | 86 | 1024.6 |
| 20260901100511 | 57 | 96 | 1.0 | 3.0 | 0.00 | 0.05 | 0.00 | 86 | 1024.7 |
| 20260901100101 | 57 | 96 | 1.0 | 3.0 | 0.00 | 0.05 | 0.00 | 86 | 1024.6 |
| 20260901095553 | 57 | 96 | 2.0 | 3.0 | 0.00 | 0.05 | 0.00 | 85 | 1024.6 |
| 20260901095043 | 57 | 61 | 1.0 | 2.0 | 0.00 | 0.05 | 0.00 | 85 | 1024.7 |
| 20260901094553 | 57 | 61 | 1.0 | 2.0 | 0.00 | 0.05 | 0.00 | 85 | 1024.7 |
| 20260901094059 | 57 | 61 | 1.0 | 2.0 | 0.00 | 0.05 | 0.00 | 84 | 1024.7 |
| 20260901093502 | 57 | 61 | 1.0 | 2.0 | 0.00 | 0.05 | 0.00 | 84 | 1024.7 |
| 20260901093100 | 57 | 61 | 0.0 | 2.0 | 0.00 | 0.05 | 0.00 | 83 | 1024.6 |
| 20260901092503 | 58 | 61 | 0.0 | 2.0 | 0.00 | 0.05 | 0.00 | 83 | 1024.6 |
| 20260901092101 | 57 | 61 | 0.0 | 2.0 | 0.00 | 0.05 | 0.00 | 83 | 1024.7 |
| 20260901091555 | 58 | 61 | 1.0 | 2.0 | 0.00 | 0.05 | 0.00 | 83 | 1024.8 |
| 20260901091057 | 58 | 61 | 0.0 | 3.0 | 0.00 | 0.05 | 0.00 | 82 | 1024.8 |
| 20260901090551 | 58 | 61 | 0.0 | 3.0 | 0.00 | 0.05 | 0.00 | 83 | 1024.8 |
| 20260901090058 | 58 | 42 | 2.0 | 4.0 | 0.00 | 0.05 | 0.00 | 83 | 1024.8 |
| 20260901085501 | 58 | 30 | 2.0 | 4.0 | 0.00 | 0.06 | 0.00 | 83 | 1024.8 |
| 20260901085011 | 57 | 49 | 2.0 | 4.0 | 0.00 | 0.06 | 0.00 | 84 | 1024.8 |
| 20260901084501 | 57 | 34 | 2.0 | 4.0 | 0.00 | 0.06 | 0.00 | 84 | 1024.8 |
| 20260901084011 | 57 | 5 | 1.0 | 2.0 | 0.00 | 0.06 | 0.00 | 85 | 1024.9 |
| 20260901083604 | 58 | 5 | 1.0 | 2.0 | 0.00 | 0.06 | 0.00 | 85 | 1025.0 |
| 20260901083054 | 58 | 5 | 1.0 | 2.0 | 0.00 | 0.06 | 0.00 | 85 | 1025.0 |
| 20260901082602 | 58 | 5 | 1.0 | 2.0 | 0.00 | 0.06 | 0.00 | 85 | 1025.0 |
| 20260901082054 | 58 | 5 | 1.0 | 2.0 | 0.00 | 0.06 | 0.00 | 85 | 1025.0 |
| 20260901081550 | 58 | 348 | 1.0 | 2.0 | 0.00 | 0.06 | 0.00 | 85 | 1025.1 |
| 20260901081052 | 58 | 348 | 0.0 | 2.0 | 0.00 | 0.06 | 0.00 | 86 | 1025.1 |
| 20260901080543 | 58 | 130 | 0.0 | 2.0 | 0.00 | 0.06 | 0.00 | 86 | 1025.2 |
| 20260901080059 | 58 | 350 | 0.0 | 3.0 | 0.00 | 0.06 | 0.00 | 86 | 1025.1 |
| 20260901075600 | 58 | 350 | 0.0 | 3.0 | 0.00 | 0.06 | 0.00 | 86 | 1025.2 |
| 20260901075002 | 58 | 329 | 0.0 | 2.0 | 0.00 | 0.06 | 0.00 | 86 | 1025.3 |
| 20260901074614 | 58 | 329 | 1.0 | 2.0 | 0.00 | 0.06 | 0.00 | 86 | 1025.3 |
| 20260901074001 | 58 | 329 | 1.0 | 3.0 | 0.00 | 0.06 | 0.00 | 87 | 1025.2 |
| 20260901073558 | 58 | 329 | 1.0 | 3.0 | 0.00 | 0.06 | 0.00 | 86 | 1025.2 |
| 20260901073001 | 58 | 300 | 0.0 | 2.0 | 0.00 | 0.06 | 0.00 | 85 | 1025.3 |
| 20260901072559 | 58 | 300 | 0.0 | 2.0 | 0.00 | 0.06 | 0.00 | 85 | 1025.3 |
| 20260901072002 | 59 | 300 | 0.0 | 0.0 | 0.00 | 0.06 | 0.00 | 84 | 1025.3 |
| 20260901071510 | 59 | 300 | 0.0 | 0.0 | 0.00 | 0.06 | 0.00 | 84 | 1025.2 |
| 20260901071003 | 59 | 300 | 0.0 | 2.0 | 0.00 | 0.06 | 0.00 | 84 | 1025.2 |
| 20260901070508 | 59 | 300 | 0.0 | 2.0 | 0.00 | 0.06 | 0.00 | 84 | 1025.1 |
| 20260901070112 | 59 | 300 | 0.0 | 3.0 | 0.00 | 0.06 | 0.00 | 84 | 1025.1 |
| 20260901065554 | 59 | 51 | 1.0 | 3.0 | 0.00 | 0.06 | 0.00 | 83 | 1025.1 |
| 20260901065101 | 59 | 65 | 0.0 | 3.0 | 0.00 | 0.06 | 0.00 | 84 | 1024.9 |
| 20260901064554 | 59 | 67 | 1.0 | 4.0 | 0.00 | 0.06 | 0.00 | 83 | 1024.9 |
| 20260901064045 | 59 | 76 | 2.0 | 3.0 | 0.00 | 0.06 | 0.00 | 83 | 1024.9 |
| 20260901063552 | 59 | 73 | 0.0 | 1.0 | 0.00 | 0.06 | 0.00 | 83 | 1025.0 |
| 20260901063046 | 59 | 73 | 0.0 | 3.0 | 0.00 | 0.06 | 0.00 | 82 | 1025.1 |
| 20260901062551 | 59 | 73 | 0.0 | 4.0 | 0.00 | 0.06 | 0.00 | 82 | 1025.0 |
| 20260901062100 | 59 | 73 | 1.0 | 4.0 | 0.00 | 0.06 | 0.00 | 82 | 1025.0 |
| 20260901061503 | 59 | 65 | 1.0 | 3.0 | 0.00 | 0.06 | 0.00 | 81 | 1025.1 |
| 20260901061058 | 59 | 38 | 1.0 | 3.0 | 0.00 | 0.06 | 0.00 | 82 | 1025.0 |
| 20260901060605 | 59 | 38 | 1.0 | 3.0 | 0.00 | 0.06 | 0.00 | 82 | 1025.0 |
| 20260901060053 | 59 | 38 | 1.0 | 2.0 | 0.00 | 0.06 | 0.00 | 82 | 1025.0 |
| 20260901055600 | 60 | 38 | 1.0 | 2.0 | 0.00 | 0.06 | 0.06 | 83 | 1025.0 |
| 20260901055056 | 60 | 38 | 0.0 | 0.0 | 0.00 | 0.06 | 0.06 | 83 | 1025.1 |
| 20260901054606 | 60 | 38 | 0.0 | 2.0 | 0.00 | 0.06 | 0.06 | 82 | 1025.0 |
| 20260901054005 | 60 | 38 | 0.0 | 3.0 | 0.00 | 0.06 | 0.06 | 83 | 1024.9 |
| 20260901053559 | 60 | 38 | 0.0 | 4.0 | 0.00 | 0.06 | 0.06 | 83 | 1024.9 |
| 20260901053003 | 60 | 33 | 2.0 | 4.0 | 0.00 | 0.06 | 0.06 | 83 | 1024.8 |
| 20260901052559 | 60 | 21 | 3.0 | 4.0 | 0.00 | 0.06 | 0.06 | 84 | 1024.8 |
| 20260901052002 | 60 | 47 | 2.0 | 3.0 | 0.00 | 0.06 | 0.06 | 84 | 1024.8 |
| 20260901051614 | 60 | 98 | 1.0 | 2.0 | 0.00 | 0.06 | 0.06 | 84 | 1024.8 |
| 20260901051051 | 60 | 98 | 1.0 | 2.0 | 0.00 | 0.06 | 0.06 | 84 | 1024.8 |
| 20260901050558 | 60 | 98 | 0.0 | 1.0 | 0.00 | 0.06 | 0.06 | 85 | 1024.9 |
| 20260901050002 | 60 | 98 | 0.0 | 1.0 | 0.00 | 0.06 | 0.06 | 85 | 1025.0 |
| 20260901045511 | 61 | 98 | 0.0 | 2.0 | 0.00 | 0.06 | 0.06 | 85 | 1025.0 |
| 20260901045019 | 61 | 98 | 0.0 | 2.0 | 0.00 | 0.06 | 0.06 | 85 | 1025.0 |
| 20260901044527 | 61 | 98 | 0.0 | 2.0 | 0.00 | 0.06 | 0.06 | 84 | 1025.0 |
| 20260901044032 | 61 | 98 | 0.0 | 2.0 | 0.00 | 0.06 | 0.06 | 84 | 1025.0 |
| 20260901043539 | 61 | 98 | 0.0 | 2.0 | 0.00 | 0.06 | 0.06 | 84 | 1025.0 |
| 20260901043050 | 61 | 98 | 0.0 | 2.0 | 0.00 | 0.06 | 0.06 | 83 | 1024.8 |
| 20260901042557 | 61 | 98 | 1.0 | 2.0 | 0.00 | 0.06 | 0.06 | 84 | 1024.8 |
| 20260901042046 | 61 | 98 | 1.0 | 3.0 | 0.00 | 0.06 | 0.06 | 83 | 1025.0 |
| 20260901041608 | 61 | 98 | 1.0 | 2.0 | 0.00 | 0.06 | 0.06 | 84 | 1024.9 |
| 20260901041050 | 61 | 98 | 0.0 | 2.0 | 0.00 | 0.06 | 0.06 | 84 | 1024.9 |
| 20260901040537 | 61 | 98 | 0.0 | 1.0 | 0.00 | 0.06 | 0.06 | 84 | 1025.1 |
| 20260901040044 | 61 | 98 | 0.0 | 1.0 | 0.00 | 0.06 | 0.06 | 84 | 1025.0 |
| 20260901035555 | 61 | 98 | 0.0 | 2.0 | 0.00 | 0.06 | 0.06 | 84 | 1025.1 |
| 20260901035059 | 61 | 98 | 1.0 | 2.0 | 0.00 | 0.06 | 0.06 | 84 | 1025.1 |
| 20260901034553 | 61 | 98 | 1.0 | 3.0 | 0.00 | 0.06 | 0.06 | 84 | 1024.9 |
| 20260901034101 | 61 | 98 | 2.0 | 3.0 | 0.00 | 0.06 | 0.06 | 84 | 1024.7 |
| 20260901033553 | 61 | 127 | 0.0 | 2.0 | 0.00 | 0.06 | 0.06 | 84 | 1025.0 |
| 20260901033046 | 61 | 127 | 1.0 | 2.0 | 0.00 | 0.06 | 0.06 | 85 | 1024.8 |
| 20260901032557 | 61 | 127 | 0.0 | 1.0 | 0.00 | 0.06 | 0.06 | 84 | 1025.0 |
| 20260901032100 | 61 | 127 | 0.0 | 2.0 | 0.00 | 0.06 | 0.06 | 84 | 1025.1 |
| 20260901031504 | 61 | 127 | 0.0 | 2.0 | 0.00 | 0.06 | 0.06 | 84 | 1024.9 |
| 20260901031101 | 61 | 127 | 0.0 | 2.0 | 0.00 | 0.06 | 0.06 | 85 | 1024.9 |
| 20260901030505 | 61 | 127 | 1.0 | 2.0 | 0.00 | 0.06 | 0.06 | 85 | 1024.8 |
| 20260901030105 | 61 | 127 | 1.0 | 3.0 | 0.00 | 0.06 | 0.06 | 84 | 1024.8 |
| 20260901025552 | 61 | 127 | 1.0 | 3.0 | 0.00 | 0.06 | 0.06 | 84 | 1024.7 |
| 20260901025100 | 61 | 105 | 1.0 | 3.0 | 0.00 | 0.06 | 0.06 | 84 | 1024.7 |
| 20260901024553 | 62 | 113 | 1.0 | 3.0 | 0.00 | 0.06 | 0.06 | 84 | 1024.5 |
| 20260901024100 | 62 | 101 | 1.0 | 2.0 | 0.00 | 0.06 | 0.06 | 83 | 1024.5 |
| 20260901023553 | 62 | 101 | 1.0 | 4.0 | 0.00 | 0.06 | 0.06 | 83 | 1024.4 |
| 20260901023045 | 62 | 101 | 1.0 | 4.0 | 0.00 | 0.06 | 0.06 | 83 | 1024.3 |